Voltar ao catálogo

STARLINK-37458

AtivoComunicaçõesVLEO
NORAD 100033·PAYLOAD·🇺🇸 United States

Lançado Jul 14, 2026 de Cape Canaveral Space Force Station

Loading…

Próximas Passagens (próximas 24 horas)

TLE

AtualizadoSource: Space-Track

Época: Sep 14, 2026, 15:20 UTC

1 A0033U 26161F   26257.63914440  .00015067  00000-0  45604-3 0  9996
2 A0033  53.1607  24.8996 0001009  69.6758 290.4353 15.34407955  9715

Acompanhe STARLINK-37458 em tempo real com AllMySat

Download on the App Store